N5ZPR Weather Reports


Display with metric or nautical units.
time (UTC)temp
F
wind
direction
speed
MPH
gust
MPH
rain 1hr
in
rain 24hr
in
rain mn
in
humidity
%
barometer
mb
20260503021003 65 346 0.0 0.0 0.00 0.00 0.00 57 1016.7
20260503020003 66 346 0.0 0.0 0.00 0.00 0.00 55 1016.7
20260503015004 66 346 0.0 0.0 0.00 0.00 0.00 54 1016.7
20260503014004 67 346 0.0 0.0 0.00 0.00 0.00 54 1016.7
20260503013003 68 346 0.0 0.0 0.00 0.00 0.00 51 1016.7
20260503012003 69 346 0.0 0.0 0.00 0.00 0.00 49 1016.7
20260503011004 70 346 0.0 1.0 0.00 0.00 0.00 47 1016.6
20260503010003 71 346 0.0 0.0 0.00 0.00 0.00 46 1016.5
20260503005005 72 346 0.0 1.0 0.00 0.00 0.00 43 1016.5
20260503004003 73 346 0.0 1.0 0.00 0.00 0.00 43 1016.5
20260503003004 73 346 0.0 3.0 0.00 0.00 0.00 39 1016.5
20260503002003 74 346 0.0 3.0 0.00 0.00 0.00 39 1016.5
20260503000003 74 346 2.0 6.0 0.00 0.00 0.00 37 1016.6
20260502234004 75 339 2.0 6.0 0.00 0.00 0.00 37 1016.7
20260502233004 76 342 4.0 8.0 0.00 0.00 0.00 39 1016.7
20260502232003 77 0 5.0 7.0 0.00 0.00 0.00 38 1016.7
20260502231004 78 317 2.0 6.0 0.00 0.00 0.00 34 1017.6
20260502230004 76 27 1.0 6.0 0.00 0.00 0.00 32 1017.6
20260502225003 77 32 2.0 7.0 0.00 0.00 0.00 32 1017.6
20260502224003 78 357 5.0 12.0 0.00 0.00 0.00 33 1017.6
20260502221004 77 342 3.0 9.0 0.00 0.00 0.00 35 1017.6
20260502220004 77 48 3.0 7.0 0.00 0.00 0.00 37 1017.6
20260502215003 77 340 2.0 12.0 0.00 0.00 0.00 33 1017.6
20260502213003 77 345 1.0 8.0 0.00 0.00 0.00 34 1017.6
20260502212004 77 331 3.0 10.0 0.00 0.00 0.00 37 1017.6
20260502211004 76 295 4.0 9.0 0.00 0.00 0.00 38 1017.6
20260502210003 77 26 7.0 10.0 0.00 0.00 0.00 37 1017.6
20260502203003 76 342 6.0 10.0 0.00 0.00 0.00 39 1018.0
20260502202003 77 321 5.0 7.0 0.00 0.00 0.00 39 1018.2
20260502201004 76 320 3.0 12.0 0.00 0.00 0.00 34 1018.2
20260502200004 76 287 5.0 12.0 0.00 0.00 0.00 36 1019.7
20260502195003 75 38 2.0 6.0 0.00 0.00 0.00 39 1019.7
20260502193003 75 5 2.0 8.0 0.00 0.00 0.00 39 1019.7
20260502192003 75 320 1.0 5.0 0.00 0.00 0.00 38 1019.7
20260502190004 74 4 5.0 9.0 0.00 0.00 0.00 38 1019.7
20260502185003 75 354 2.0 7.0 0.00 0.00 0.00 38 1019.7
20260502184004 74 342 5.0 9.0 0.00 0.00 0.00 42 1019.7
20260502183003 74 281 4.0 9.0 0.00 0.00 0.00 41 1019.7
20260502182004 73 57 1.0 12.0 0.00 0.00 0.00 40 1019.7
20260502181003 74 346 2.0 7.0 0.00 0.00 0.00 39 1019.7
20260502164004 71 5 6.0 10.0 0.00 0.00 0.00 48 1020.4
20260502163004 70 334 2.0 9.0 0.00 0.00 0.00 50 1020.3
20260502162004 69 339 2.0 8.0 0.00 0.00 0.00 56 1020.3
20260502161004 69 296 2.0 7.0 0.00 0.00 0.00 57 1020.3
20260502151004 65 349 1.0 7.0 0.00 0.00 0.00 66 1020.2
20260502122003 49 223 0.0 0.0 0.00 0.00 0.00 93 1018.7
20260502121003 49 223 0.0 0.0 0.00 0.00 0.00 93 1017.7
20260502114003 48 223 0.0 0.0 0.00 0.00 0.00 93 1017.7
20260502113003 48 223 0.0 0.0 0.00 0.00 0.00 93 1017.7
20260502112004 48 223 0.0 0.0 0.00 0.00 0.00 93 1017.5
20260502111003 48 223 0.0 0.0 0.00 0.00 0.00 93 1017.5
20260502105004 48 223 0.0 0.0 0.00 0.00 0.00 92 1017.4
20260502104004 48 223 0.0 0.0 0.00 0.00 0.00 92 1017.1
20260502103003 49 223 0.0 0.0 0.00 0.00 0.00 92 1017.1
20260502101003 49 223 0.0 0.0 0.00 0.00 0.00 92 1017.1
20260502091004 50 223 0.0 2.0 0.00 0.00 0.00 92 1017.1
20260502071003 51 223 0.0 1.0 0.00 0.00 0.00 89 1017.1
20260502070004 51 223 0.0 0.0 0.00 0.00 0.00 88 1017.1
20260502065003 51 223 0.0 0.0 0.00 0.00 0.00 88 1017.1
20260502064003 52 223 0.0 1.0 0.00 0.00 0.00 87 1017.1
20260502063004 52 223 0.0 2.0 0.00 0.00 0.00 87 1017.1
20260502062003 52 224 1.0 5.0 0.00 0.00 0.00 88 1017.3
20260502061004 52 130 2.0 3.0 0.00 0.00 0.00 88 1017.3
20260502060005 52 117 0.0 0.0 0.00 0.00 0.00 88 1017.3
20260502055004 52 117 0.0 1.0 0.00 0.00 0.00 87 1017.4
20260502054004 52 117 0.0 2.0 0.00 0.00 0.00 87 1017.1
20260502052004 53 116 0.0 0.0 0.00 0.00 0.00 84 1017.1
20260502051003 53 116 0.0 0.0 0.00 0.00 0.00 83 1017.1
20260502050003 54 116 0.0 0.0 0.00 0.00 0.00 83 1017.1
20260502045003 54 116 0.0 0.0 0.00 0.00 0.00 82 1017.0
20260502043003 55 116 0.0 0.0 0.00 0.00 0.00 80 1017.0
20260502042004 55 116 0.0 0.0 0.00 0.00 0.00 79 1017.0
20260502041003 56 116 0.0 0.0 0.00 0.00 0.00 78 1017.0
20260502040003 56 116 0.0 0.0 0.00 0.00 0.00 77 1017.0
20260502035003 56 116 0.0 0.0 0.00 0.00 0.00 77 1016.8
20260502034003 56 116 0.0 1.0 0.00 0.00 0.00 78 1016.7
20260502033003 56 116 0.0 0.0 0.00 0.00 0.00 78 1016.7
20260502032003 56 117 0.0 0.0 0.00 0.00 0.00 77 1016.7
20260502031004 57 116 0.0 0.0 0.00 0.00 0.00 76 1016.7
20260502030003 57 116 0.0 0.0 0.00 0.00 0.00 75 1016.4
20260502024004 58 116 0.0 0.0 0.00 0.00 0.00 72 1015.3
20260502023003 59 116 0.0 0.0 0.00 0.00 0.00 71 1015.3
20260502022004 59 116 0.0 0.0 0.00 0.00 0.00 70 1015.3